Regional Weather Roundup
Issued by NWS Green Bay, WI

Home | Current Version | Previous Version | Graphics & Text | Print | Product List | Glossary Off
Versions: 1 2 3 4 5 6 7 8 9 10 11 12 13 14 15 16 17 18 19 20 21 22 23 24 25 26 27 28 29 30 31 32 33 34 35 36 37 38 39 40 41 42 43 44 45 46 47 48 49 50

463
ASUS43 KGRB 281900
RWRGRB

NORTH-CENTRAL AND NORTHEAST WISCONSIN REGIONAL WEATHER ROUNDUP
NATIONAL WEATHER SERVICE GREEN BAY WI
200 PM CDT FRI APR 28 2017

WIZ005-009-010>012-018-019-282000-
NORTH CENTRAL WISCONSIN

CITY           SKY/WX    TMP DP  RH WIND       PRES   REMARKS
IRONWOOD       CLOUDY    36  28  73 W15       29.90S
MANITOWISH WTR CLOUDY    35  27  73 W13       29.89S
ARBOR VITAE    NOT AVBL
EAGLE RIVER    NOT AVBL
LAND O LAKES   PTSUNNY   38  24  58 W9        29.89R
RHINELANDER    CLOUDY    40  26  57 SW8       29.89F
PHILLIPS       CLOUDY    40  29  65 NW6       29.89S
ANTIGO         NOT AVBL
TOMAHAWK       NOT AVBL
MERRILL        CLOUDY    42  29  60 W5        29.90S
$$

WIZ013-073-282000-
NORTHEAST WISCONSIN

CITY           SKY/WX    TMP DP  RH WIND       PRES   REMARKS
IRON MOUNTAIN  CLOUDY    40  27  59 W13G22    29.88S
MARINETTE      CLOUDY    46  28  49 W8G16     29.92R
$$

WIZ017-030-035>037-045-282000-
CENTRAL WISCONSIN

CITY           SKY/WX    TMP DP  RH WIND       PRES   REMARKS
MEDFORD        NOT AVBL
WAUSAU         CLOUDY    43  29  57 W5        29.90R
MOSINEE        PTSUNNY   45  30  57 SW6       29.92R
MARSHFIELD     CLOUDY    44  29  55 W3        29.91R
WISC RAPIDS    CLOUDY    47  30  51 CALM      29.94R
STEVENS POINT  NOT AVBL
WAUPACA        MOSUNNY   50  31  47 W7        29.93R
SHAWANO        MOSUNNY   50  30  47 W6G16     29.91R
CLINTONVILLE   CLOUDY    48  28  46 W6        29.91S
WAUTOMA        MOSUNNY   50  32  50 S7        29.94R
$$

WIZ038-039-048-051-282000-
FOX VALLEY

CITY           SKY/WX    TMP DP  RH WIND       PRES   REMARKS
NWS GREEN BAY  MOSUNNY   49  37  63 SW9       29.93R
APPLETON       PTSUNNY   48  30  49 SW9       29.91R
OSHKOSH        MOSUNNY   48  34  58 SW7       29.94R
FOND DU LAC    MOSUNNY   49  34  56 SW8       29.94S
$$

WIZ022-050-052-282000-
EAST CENTRAL WISCONSIN

CITY           SKY/WX    TMP DP  RH WIND       PRES   REMARKS
EPHRAIM        NOT AVBL
WASHINGTON ISL CLOUDY    42  28  59 SW12G17   29.92R
STURGEON BAY   PTSUNNY   46  30  53 SW13G18   29.94R
MANITOWOC      NOT AVBL
SHEBOYGAN      CLOUDY    47  41  80 SE13      29.95R
$$

LMZ563-521-522-541>543-282000-
LAKESHORE

STATION/POSITION TIME  TEMP    WIND        PRES    VSBY  WAVE
                       AIR SEA DIR/SP/G                  HT/PER
                 (UTC) (F)     (DEG/KT/KT) (MB)    (MI)  (FT/S)
SHEBOYGAN LKSHOR 1800   40     160/ 16/ 17 1014.3R
KEWAUNEE LKSHORE 1830   45     230/  9/ 15 1013.3R
NORTHPORT PIER   1840   42     240/  6/ 15 1013.2S
N MID LAKE BUOY  1750   37 37  240/ 14/ 16 1014.6R         3/ 5
CHAMBERS ISLAND  1840   43     200/  6/ 10 1012.5F
MENOMINEE LKSHOR 1830   43     240/  7/ 10 1012.0F
$$




USA.gov is the U.S. government's official web portal to all federal, state and local government web resources and services.